Regional Weather Roundup
Issued by NWS

Home | Current Version | Previous Version | Text Only | Print | Product List | Glossary Off
Versions: 1 2 3 4 5 6 7 8 9 10 11 12 13 14 15 16 17 18 19 20 21 22 23 24 25 26 27 28 29 30 31 32 33 34 35 36 37 38 39 40 41 42 43 44 45 46 47 48 49 50

000
ASUS43 KMPX 212001
RWRMN
WEATHER ROUNDUP FOR MINNESOTA
NATIONAL WEATHER SERVICE TWIN CITIES/CHANHASSEN MN
300 PM CDT THU AUG 21 2014


NOTE: "FAIR" INDICATES FEW OR NO CLOUDS BELOW 12,000 FEET WITH NO
SIGNIFICANT WEATHER AND/OR OBSTRUCTIONS TO VISIBILITY. N/A MEANS
CURRENT SKY AND/OR WEATHER CONDITIONS ARE NOT AVAILABLE.

MNZ060>063-068>070-212100-
   Twin Cities Metro

CITY           SKY/WX    TMP DP  RH WIND       PRES   REMARKS
TWIN CITIES    CLOUDY    81  72  74 NE13      29.77R
ST PAUL        CLOUDY    79  72  79 E12       29.77S
CRYSTAL        CLOUDY    80  71  74 NE9       29.76R
LAKEVILLE      PTSUNNY   82  72  69 S5        29.78R
EDEN PRAIRIE   CLOUDY    84  73  69 S6        29.75S HX  90
SOUTH ST PAUL  PTSUNNY   82  72  71 E5        29.77S
LAKE ELMO      CLOUDY    77  72  83 E7        29.80S
$$
MNZ001>005-007-008-013>017-022>024-027-028-212100-
   Northwest Minnesota

CITY           SKY/WX    TMP DP  RH WIND       PRES   REMARKS
BEMIDJI        CLOUDY    71  64  81 SE7       29.84S
HALLOCK        PTSUNNY   73  66  78 NE7       29.81R
ROSEAU         PTSUNNY   70  63  78 E6        29.85S THUNDER
WARROAD        CLOUDY    66  63  88 E6        29.87R
THIEF RVR FALL CLOUDY    77  66  69 NW5       29.81R
CROOKSTON      PTSUNNY   77  66  69 SW3       29.80R
FOSSTON        CLOUDY    73  64  73 E3        29.82R
DETROIT LAKES  PTSUNNY   73  68  83 S6        29.83R
MOORHEAD       CLOUDY    75  72  88 SE3       29.79R
PARK RAPIDS    CLOUDY    70  65  84 E8        29.83S
MAHNOMEN       CLOUDY    76  68  76 S3        29.80R
$$
MNZ006-009>011-018-025>026-212100-
   North Central Minnesota

CITY           SKY/WX    TMP DP  RH WIND       PRES   REMARKS
BAUDETTE       CLOUDY    68  63  84 E12       29.85S
FLAG ISLAND      N/A     66  63  88 CALM      29.85F
INTL FALLS     CLOUDY    69  61  75 E10       29.88S
WASKISH        CLOUDY    73  66  78 CALM      29.84S
BIG FORK       MOSUNNY   72  63  73 SE7       29.86S
LONGVILLE      CLOUDY    73  66  78 E5        29.84S
GRAND RAPIDS   CLOUDY    70  63  78 E7        29.86S
CRANE LAKE     CLOUDY    66  63  88 CALM      29.91S
ORR            CLOUDY    68  61  77 SE5       29.87R
COOK           CLOUDY    70  63  78 E3        29.89R
WALKER         CLOUDY    72  66  83 E3        29.83F
$$
MNZ012-019>021-037-212100-
   Northeast Minnesota

CITY           SKY/WX    TMP DP  RH WIND       PRES   REMARKS
DULUTH         CLOUDY    67  60  78 E14       29.89S
ELY            CLOUDY    64  57  77 E8        29.92S
HIBBING        CLOUDY    73  62  68 E8        29.88S
EVELETH        CLOUDY    70  61  73 SE7       29.90R
DULUTH HARBOR  CLOUDY    63  61  94 NE20      29.88S
TWO HARBORS    CLOUDY    64  57  77 NE12G21   29.89S
SILVER BAY     CLOUDY    61  61 100 NE10G17   29.91S
GRAND MARAIS     N/A     62  59  90 E10       29.94F
G MARAIS ARPRT PTSUNNY   63  55  77 E10       29.98S
$$
MNZ029>031-032-039>041-046>048-054>057-064-212100-
   West Central Minnesota

CITY           SKY/WX    TMP DP  RH WIND       PRES   REMARKS
FERGUS FALLS   CLOUDY    73  66  78 E6        29.79R
WHEATON        MOSUNNY   77  68  73 N5        29.80R
MORRIS         SUNNY     82  70  65 N8        29.78R
ALEXANDRIA     CLOUDY    73  69  87 E8        29.82R
ELBOW LAKE     CLOUDY    76  70  82 E3        29.79S
WADENA         CLOUDY    72  66  83 E9        29.81R
GLENWOOD       SUNNY     77  72  83 NE6       29.80S
APPLETON       SUNNY     84  70  61 NW7       29.77R
BENSON         MOSUNNY   82  70  65 N7        29.78R
ORTONVILLE     PTSUNNY   81  70  69 N6        29.78R
MADISON        SUNNY     84  73  70 N12       29.77R HX  91
WILLMAR        FAIR      82  72  69 NW3       29.79R
$$
MNZ033>034-036-042>043-049>051-058-059-212100-
   Central Minnesota

CITY           SKY/WX    TMP DP  RH WIND       PRES   REMARKS
ST CLOUD       CLOUDY    76  70  82 E5        29.79R
SAUK CENTRE    CLOUDY    71  69  94 E9        29.80S FOG
PAYNESVILLE    CLOUDY    74  70  86 N12       29.79R
AITKIN         CLOUDY    72  64  78 E6        29.83S
PINE RIVER     CLOUDY    73  66  78 SE9       29.86S
BRAINERD       CLOUDY    70  66  87 VRB7      29.82F
STAPLES        CLOUDY    70  66  88 E5        29.82S
LONG PRAIRIE   CLOUDY    70  68  94 NE8       29.81S FOG
LITTLE FALLS   CLOUDY    70  66  88 E3        29.81R FOG
LITCHFIELD     PTSUNNY   81  75  83 NE3       29.78S
BUFFALO        CLOUDY    76  70  81 NE7       29.79S
MAPLE LAKE     CLOUDY    77  73  85 NE8       29.80R
$$
MNZ037-044-045-052-053-212100-
   East Central Minnesota

CITY           SKY/WX    TMP DP  RH WIND       PRES   REMARKS
PRINCETON      CLOUDY    75  70  83 E6        29.80R
MORA           CLOUDY    70  66  88 E7        29.83S
CAMBRIDGE      MOSUNNY   75  64  69 E7        29.79S
RUSH CITY      CLOUDY    73  68  86 E6        29.82R
MOOSE LAKE     CLOUDY    63  61  94 NE7       29.84F
HINCKLEY       CLOUDY    73  70  88 E7        29.82F
CLOQUET        CLOUDY    66  61  82 E12G21    29.88S
MCGREGOR       CLOUDY    70  64  83 E10       29.86F
$$
MNZ071>073-080-081-089-090-097-098-212100-
   Southwest Minnesota

CITY           SKY/WX    TMP DP  RH WIND       PRES   REMARKS
MONTEVIDEO     PTSUNNY   84  75  74 N5        29.78R HX  92
GRANITE FALLS  CLOUDY    84  75  74 NW6       29.78R HX  92
CANBY          MOSUNNY   87  71  57 NW12G20   29.78R HX  93
MARSHALL       MOSUNNY   88  72  58 N14       29.76S HX  94
REDWOOD FALLS  CLOUDY    86  75  69 NW7       29.76R HX  95
OLIVIA         CLOUDY    82  73  74 NW6       29.77R
PIPESTONE      MOSUNNY   86  73  66 NW12      29.81R HX  93
WINDOM         SUNNY     86  72  62 SW15      29.79R HX  92
WORTHINGTON    MOSUNNY   84  23  10 SW12G18   29.82R
JACKSON        SUNNY     86  68  54 SW15G21   29.80S
TRACY          PTSUNNY   87  77  71 N5        29.77S HX  99
SLAYTON        PTSUNNY   86  74  67 CALM      29.81R HX  94
$$
MNZ065>067-074>077-082>085-091>093-212100-
   South Central Minnesota

CITY           SKY/WX    TMP DP  RH WIND       PRES   REMARKS
MANKATO        MOSUNNY   84  72  65 S9G16     29.77S
NEW ULM        SUNNY     84  73  70 SW9       29.76R HX  91
FAIRMONT       SUNNY     86  66  51 MISG      29.79S
GLENCOE        CLOUDY    83  73  71 CALM      29.76R
FARIBAULT      SUNNY     90  64  43 S10       29.79R HX  91
OWATONNA       MOSUNNY   84  72  65 S13       29.80R
WASECA         MOSUNNY   82  68  61 S10       29.80S
ALBERT LEA     MOSUNNY   84  70  61 SW9       29.81R
$$
MNZ078>079-086>088-094>096-212100-
   Southeast Minnesota

CITY           SKY/WX    TMP DP  RH WIND       PRES   REMARKS
ROCHESTER      MOSUNNY   82  73  74 SE8       29.84R
RED WING       CLOUDY    82  72  69 SE8       29.79R
STANTON        MOSUNNY   86  71  60 S5        29.77S HX  91
DODGE CENTER   MOSUNNY   84  73  70 S8        29.82S HX  91
WINONA         PTSUNNY   79  72  78 SE10      29.82R
AUSTIN         MOSUNNY   84  72  65 SW13G18   29.81S
PRESTON        PTSUNNY   78  75  89 SE14      29.85S
$$
ABBREVIATIONS USED IN REMARKS
   TC - TEMPERATURES IN CELSIUS
  WCI - WIND CHILL INDEX
   HX - HEAT INDEX
  VSB - VISIBILITY
$$



USA.gov is the U.S. government's official web portal to all federal, state and local government web resources and services.